TimeCDT,TemperatureF,Dew PointF,Humidity,Sea Level PressureIn,VisibilityMPH,Wind Direction,Wind SpeedMPH,Gust SpeedMPH,PrecipitationIn,Events,Conditions,WindDirDegrees,DateUTC
12:14 AM,46.4,46.4,100,29.75,10.0,NW,12.7,-,N/A,,Overcast,310,2012-10-24 05:14:00
12:35 AM,46.4,46.4,100,29.78,10.0,WNW,12.7,-,N/A,,Overcast,290,2012-10-24 05:35:00
12:54 AM,46.4,46.4,100,29.78,10.0,WNW,11.5,-,N/A,,Overcast,300,2012-10-24 05:54:00
1:14 AM,46.4,46.4,100,29.80,10.0,WNW,8.1,-,N/A,,Overcast,290,2012-10-24 06:14:00
1:35 AM,46.4,46.4,100,29.81,10.0,WNW,9.2,-,N/A,,Overcast,290,2012-10-24 06:35:00
1:54 AM,46.4,44.6,93,29.82,10.0,WNW,5.8,-,N/A,,Overcast,290,2012-10-24 06:54:00
2:14 AM,46.4,44.6,93,29.83,10.0,WNW,11.5,-,N/A,,Overcast,290,2012-10-24 07:14:00
2:35 AM,46.4,44.6,93,29.84,10.0,WNW,13.8,-,N/A,,Overcast,290,2012-10-24 07:35:00
2:54 AM,44.6,42.8,93,29.85,10.0,WNW,15.0,-,N/A,,Mostly Cloudy,290,2012-10-24 07:54:00
3:14 AM,44.6,42.8,93,29.84,10.0,NW,16.1,-,N/A,,Mostly Cloudy,310,2012-10-24 08:14:00
3:35 AM,44.6,42.8,93,29.84,10.0,NW,13.8,17.3,N/A,,Mostly Cloudy,320,2012-10-24 08:35:00
3:54 AM,42.8,41.0,93,29.84,10.0,NW,13.8,-,N/A,,Scattered Clouds,320,2012-10-24 08:54:00
4:14 AM,42.8,41.0,93,29.85,10.0,NW,10.4,-,N/A,,Mostly Cloudy,310,2012-10-24 09:14:00
4:35 AM,42.8,39.2,87,29.83,10.0,NW,9.2,-,N/A,,Overcast,320,2012-10-24 09:35:00
4:54 AM,42.8,39.2,87,29.84,10.0,NW,13.8,-,N/A,,Overcast,320,2012-10-24 09:54:00
5:15 AM,42.8,39.2,87,29.84,10.0,NW,12.7,-,N/A,,Overcast,310,2012-10-24 10:15:00
5:35 AM,42.8,39.2,87,29.88,10.0,WNW,12.7,-,N/A,,Overcast,300,2012-10-24 10:35:00
5:54 AM,42.8,39.2,87,29.90,10.0,WNW,11.5,21.9,N/A,,Overcast,290,2012-10-24 10:54:00
6:14 AM,41.0,39.2,93,29.91,10.0,WNW,12.7,-,N/A,,Overcast,290,2012-10-24 11:14:00
6:35 AM,41.0,39.2,93,29.91,10.0,WNW,10.4,-,N/A,,Overcast,300,2012-10-24 11:35:00
6:54 AM,41.0,39.2,93,29.90,10.0,WNW,9.2,-,N/A,,Overcast,300,2012-10-24 11:54:00
7:15 AM,41.0,39.2,93,29.89,10.0,NW,8.1,-,N/A,,Overcast,310,2012-10-24 12:15:00
7:35 AM,41.0,39.2,93,29.90,10.0,WNW,8.1,-,N/A,,Overcast,300,2012-10-24 12:35:00
7:54 AM,41.0,39.2,93,29.93,10.0,WNW,10.4,-,N/A,,Overcast,300,2012-10-24 12:54:00
8:15 AM,41.0,39.2,93,29.94,10.0,WNW,8.1,-,N/A,,Overcast,290,2012-10-24 13:15:00
8:35 AM,41.0,39.2,93,29.95,10.0,NW,6.9,-,N/A,,Scattered Clouds,310,2012-10-24 13:35:00
8:54 AM,41.0,39.2,93,29.95,10.0,WNW,5.8,-,N/A,,Scattered Clouds,290,2012-10-24 13:54:00
9:35 AM,42.8,39.2,87,29.94,10.0,WNW,6.9,-,N/A,,Clear,300,2012-10-24 14:35:00
9:54 AM,42.8,39.2,87,29.95,10.0,West,6.9,-,N/A,,Scattered Clouds,280,2012-10-24 14:54:00
10:15 AM,42.8,39.2,87,29.96,10.0,WNW,9.2,-,N/A,,Scattered Clouds,300,2012-10-24 15:15:00
10:34 AM,42.8,39.2,87,29.96,10.0,NW,11.5,-,N/A,,Scattered Clouds,310,2012-10-24 15:34:00
10:54 AM,42.8,37.4,81,29.96,10.0,NW,11.5,-,N/A,,Scattered Clouds,310,2012-10-24 15:54:00
11:15 AM,41.0,37.4,87,29.95,10.0,WNW,10.4,-,N/A,,Mostly Cloudy,300,2012-10-24 16:15:00
11:34 AM,41.0,37.4,87,29.95,10.0,NW,11.5,-,N/A,,Mostly Cloudy,310,2012-10-24 16:34:00
11:54 AM,41.0,37.4,87,29.95,10.0,NW,10.4,-,N/A,,Mostly Cloudy,310,2012-10-24 16:54:00
12:15 PM,41.0,37.4,87,29.95,10.0,WNW,15.0,-,N/A,,Mostly Cloudy,300,2012-10-24 17:15:00
12:34 PM,41.0,37.4,87,29.95,10.0,NW,16.1,-,N/A,,Mostly Cloudy,310,2012-10-24 17:34:00
12:54 PM,41.0,37.4,87,29.95,10.0,NW,16.1,19.6,N/A,,Mostly Cloudy,310,2012-10-24 17:54:00
1:15 PM,41.0,37.4,87,29.95,10.0,NW,12.7,-,N/A,,Mostly Cloudy,310,2012-10-24 18:15:00
1:34 PM,41.0,35.6,81,29.96,10.0,NW,15.0,-,N/A,,Mostly Cloudy,310,2012-10-24 18:34:00
1:54 PM,39.2,35.6,87,29.96,10.0,WNW,15.0,-,N/A,,Scattered Clouds,300,2012-10-24 18:54:00
2:14 PM,39.2,35.6,87,29.97,10.0,NW,12.7,-,N/A,,Scattered Clouds,310,2012-10-24 19:14:00
2:34 PM,39.2,35.6,87,29.97,10.0,NW,11.5,-,N/A,,Clear,310,2012-10-24 19:34:00
2:55 PM,39.2,35.6,87,29.97,10.0,NW,10.4,-,N/A,,Clear,310,2012-10-24 19:55:00
3:14 PM,41.0,35.6,81,29.96,10.0,NW,8.1,-,N/A,,Scattered Clouds,320,2012-10-24 20:14:00
3:34 PM,41.0,35.6,81,29.96,10.0,NW,9.2,-,N/A,,Scattered Clouds,310,2012-10-24 20:34:00
3:55 PM,39.2,35.6,87,29.97,10.0,NW,10.4,-,N/A,,Mostly Cloudy,320,2012-10-24 20:55:00
4:14 PM,39.2,35.6,87,29.97,10.0,NW,9.2,-,N/A,,Overcast,310,2012-10-24 21:14:00
4:34 PM,39.2,33.8,81,29.97,10.0,NW,11.5,-,N/A,,Mostly Cloudy,320,2012-10-24 21:34:00
4:55 PM,39.2,33.8,81,29.97,10.0,NW,12.7,-,N/A,,Scattered Clouds,320,2012-10-24 21:55:00
5:14 PM,39.2,33.8,81,29.97,10.0,NW,13.8,-,N/A,,Clear,320,2012-10-24 22:14:00
5:34 PM,39.2,33.8,81,29.97,10.0,NNW,12.7,-,N/A,,Clear,330,2012-10-24 22:34:00
5:55 PM,39.2,33.8,81,29.97,10.0,NNW,12.7,-,N/A,,Clear,330,2012-10-24 22:55:00
6:14 PM,39.2,35.6,87,29.96,10.0,NNW,11.5,-,N/A,,Clear,330,2012-10-24 23:14:00
6:35 PM,37.4,35.6,93,29.97,10.0,NNW,10.4,16.1,N/A,,Clear,330,2012-10-24 23:35:00
6:55 PM,37.4,33.8,87,29.97,10.0,NNW,10.4,-,N/A,,Clear,330,2012-10-24 23:55:00
7:14 PM,37.4,33.8,87,29.97,10.0,NNW,10.4,-,N/A,,Clear,330,2012-10-25 00:14:00
7:35 PM,37.4,33.8,87,29.97,10.0,NNW,13.8,-,N/A,,Clear,330,2012-10-25 00:35:00
7:55 PM,37.4,33.8,87,29.98,10.0,NNW,10.4,-,N/A,,Clear,330,2012-10-25 00:55:00
8:14 PM,37.4,33.8,87,29.98,10.0,NNW,12.7,-,N/A,,Clear,330,2012-10-25 01:14:00
8:35 PM,37.4,33.8,87,29.99,10.0,NW,16.1,-,N/A,,Clear,320,2012-10-25 01:35:00
9:14 PM,35.6,32.0,87,30.00,10.0,NW,15.0,-,N/A,,Clear,320,2012-10-25 02:14:00
9:35 PM,35.6,32.0,87,30.01,10.0,NW,13.8,-,N/A,,Clear,310,2012-10-25 02:35:00
9:55 PM,35.6,32.0,87,30.00,10.0,NW,12.7,-,N/A,,Clear,320,2012-10-25 02:55:00
10:14 PM,35.6,32.0,87,30.00,10.0,NW,12.7,-,N/A,,Clear,320,2012-10-25 03:14:00
10:35 PM,35.6,30.2,81,30.00,10.0,NNW,11.5,-,N/A,,Clear,330,2012-10-25 03:35:00
10:54 PM,35.6,30.2,81,30.00,10.0,NW,12.7,-,N/A,,Clear,320,2012-10-25 03:54:00
11:14 PM,35.6,30.2,81,30.00,10.0,NW,12.7,-,N/A,,Mostly Cloudy,320,2012-10-25 04:14:00
11:35 PM,35.6,30.2,81,30.00,10.0,NNW,11.5,-,N/A,,Mostly Cloudy,330,2012-10-25 04:35:00
11:54 PM,35.6,30.2,81,30.01,10.0,NW,13.8,18.4,N/A,,Mostly Cloudy,320,2012-10-25 04:54:00